Location: Albany
(35.0000°S, 118.0000°E)
Time: 23:17:23
(UTC-05:00)

ISS - All Passes

Search period start: 20 November 2014 00:00
Search period end: 30 November 2014 00:00
Orbit: 408 x 417 km, 51.6° (Epoch: 20 November)

Date Brightness Start Highest point End Pass type
(mag) Time Alt. Az. Time Alt. Az. Time Alt. Az.
20 Nov - 00:29:58 10° NW 00:33:20 81° SW 00:36:46 10° SE daylight
20 Nov - 02:08:58 10° SW 02:10:30 12° SSW 02:12:01 10° S daylight
20 Nov - 07:01:30 10° SSW 07:04:29 28° SE 07:07:26 10° E visible
20 Nov - 08:38:15 10° WSW 08:41:05 25° NW 08:43:53 10° N visible
20 Nov - 23:40:34 10° NNW 23:43:50 49° NE 23:47:09 10° ESE daylight
21 Nov - 01:18:16 10° WSW 01:20:42 18° SSW 01:23:09 10° SSE daylight
21 Nov - 06:12:21 10° SSW 06:14:45 18° SSE 06:17:09 10° ESE daylight
21 Nov - 07:48:20 10° WSW 07:51:38 50° NW 07:54:53 10° NNE visible
21 Nov - 22:51:33 10° N 22:54:21 25° NE 22:57:11 10° ESE daylight
22 Nov - 00:27:57 10° W 00:30:56 28° SW 00:33:57 10° SSE daylight
22 Nov - 05:23:28 10° S 05:24:54 12° SSE 05:26:21 10° SE daylight
22 Nov - 06:58:40 10° SW 07:02:04 79° SE 07:05:25 10° NE visible
22 Nov - 22:03:18 10° NNE 22:04:54 13° NE 22:06:30 10° E daylight
22 Nov - 23:37:55 10° WNW 23:41:13 50° SW 23:44:33 10° SE daylight
23 Nov - 06:09:08 10° SW 06:12:22 40° SE 06:15:34 10° ENE daylight
23 Nov - 07:46:37 10° W 07:48:46 16° NW 07:50:54 10° NNW visible
23 Nov - 22:48:09 10° NW 22:51:31 82° NE 22:54:56 10° SE daylight
24 Nov - 00:26:42 10° WSW 00:28:34 14° SSW 00:30:26 10° S daylight
24 Nov - 05:19:44 10° SSW 05:22:34 24° SSE 05:25:22 10° E daylight
24 Nov - 06:56:12 10° WSW 06:59:14 31° NW 07:02:13 10° NNE visible
24 Nov - 21:58:42 10° NNW 22:01:51 39° NE 22:05:03 10° ESE daylight
24 Nov - 23:35:59 10° W 23:38:37 21° SSW 23:41:16 10° SSE daylight
25 Nov - 04:30:28 10° S 04:32:38 16° SSE 04:34:46 10° ESE daylight
25 Nov - 06:06:13 10° SW 06:09:35 64° NW 06:12:54 10° NE daylight
25 Nov - 21:09:42 10° N 21:12:13 20° NE 21:14:46 10° E daylight
25 Nov - 22:45:36 10° WNW 22:48:42 33° SW 22:51:50 10° SSE daylight
26 Nov - 03:41:40 10° S 03:42:35 11° SSE 03:43:29 10° SE daylight
26 Nov - 05:16:26 10° SW 05:19:49 62° SE 05:23:08 10° ENE daylight
26 Nov - 06:55:43 10° WNW 06:56:01 10° NW 06:56:20 10° NW visible
26 Nov - 20:22:18 10° NE 20:22:37 10° NE 20:22:56 10° ENE daylight
26 Nov - 21:55:29 10° WNW 21:58:49 63° SW 22:02:12 10° SE daylight
26 Nov - 23:35:07 10° SW 23:36:03 11° SSW 23:37:00 10° S daylight
27 Nov - 04:26:47 10° SSW 04:29:55 33° SE 04:33:01 10° ENE daylight
27 Nov - 06:03:51 10° W 06:06:24 20° NW 06:08:54 10° N daylight
27 Nov - 21:05:39 10° NW 21:08:59 64° NE 21:12:21 10° SE daylight
27 Nov - 22:43:46 10° WSW 22:45:55 16° SSW 22:48:05 10° S daylight
28 Nov - 03:37:16 10° SSW 03:39:54 20° SSE 03:42:31 10° E daylight
28 Nov - 05:13:28 10° WSW 05:16:39 39° NW 05:19:48 10° NNE daylight
28 Nov - 20:16:10 10° NNW 20:19:10 30° NE 20:22:11 10° ESE daylight
28 Nov - 21:53:00 10° W 21:55:49 24° SSW 21:58:39 10° SSE daylight
29 Nov - 02:47:56 10° S 02:49:46 14° SSE 02:51:35 10° ESE daylight
29 Nov - 04:23:24 10° SW 04:26:48 83° NW 04:30:09 10° NE daylight
29 Nov - 19:27:16 10° NNE 19:29:23 16° NE 19:31:30 10° E daylight
29 Nov - 21:02:33 10° WNW 21:05:45 41° SW 21:09:00 10° SE daylight
